• In Uzbekistan
  • List of Countries
  • For 7 days
  • Water Temperature
  • Weather Map
  • Weather Widgets
  • user-avatar
    Login

    Hourly Weather Newcastle

    Today, 23 August, Friday

    Time Temperature Precipitation Wind Pressure Humidity
    00:00 +15°C° 0 mm 2 mps 754 mmHg 95%
    01:00 +15°C° 0 mm 2 mps 754 mmHg 95%
    02:00 +14°C° 0 mm 3 mps 754 mmHg 96%
    03:00 +14°C° 0 mm 3 mps 754 mmHg 96%
    04:00 +14°C° 0 mm 3 mps 754 mmHg 96%
    05:00 +15°C° 0 mm 2 mps 754 mmHg 96%
    06:00 +15°C° 0 mm 2 mps 754 mmHg 94%
    07:00 +16°C° 0 mm 2 mps 754 mmHg 90%
    08:00 +18°C° 0 mm 2 mps 754 mmHg 86%
    09:00 +19°C° 0 mm 3 mps 754 mmHg 81%
    10:00 +20°C° 0 mm 3 mps 754 mmHg 77%
    11:00 +21°C° 0 mm 3 mps 754 mmHg 73%
    12:00 +22°C° 0 mm 3 mps 754 mmHg 69%
    13:00 +22°C° 0 mm 3 mps 754 mmHg 69%
    14:00 +24°C° 0 mm 3 mps 754 mmHg 68%
    15:00 +24°C° 0 mm 3 mps 753 mmHg 68%
    16:00 +24°C° 0 mm 2 mps 753 mmHg 71%
    17:00 +23°C° 0 mm 2 mps 753 mmHg 74%
    18:00 +23°C° 0 mm 2 mps 752 mmHg 77%
    19:00 +20°C° 0 mm 2 mps 752 mmHg 80%
    20:00 +19°C° 0 mm 2 mps 752 mmHg 83%
    21:00 +18°C° 0 mm 2 mps 753 mmHg 85%
    22:00 +17°C° 0 mm 2 mps 752 mmHg 86%
    23:00 +16°C° 0 mm 2 mps 752 mmHg 87%

    Tomorrow, 24 August, Saturday

    Time Temperature Precipitation Wind Pressure Humidity
    00:00 +16°C° 0 mm 2 mps 752 mmHg 87%
    01:00 +15°C° 0 mm 2 mps 752 mmHg 86%
    02:00 +15°C° 0 mm 2 mps 751 mmHg 85%
    03:00 +14°C° 0 mm 2 mps 751 mmHg 84%
    04:00 +14°C° 0 mm 2 mps 751 mmHg 84%
    05:00 +14°C° 0 mm 2 mps 751 mmHg 83%
    06:00 +14°C° 0 mm 2 mps 751 mmHg 83%
    07:00 +16°C° 0 mm 2 mps 751 mmHg 77%
    08:00 +17°C° 0 mm 3 mps 751 mmHg 72%
    09:00 +19°C° 0 mm 3 mps 751 mmHg 67%
    10:00 +21°C° 0 mm 3 mps 751 mmHg 63%
    11:00 +22°C° 0 mm 4 mps 750 mmHg 59%
    12:00 +23°C° 0 mm 4 mps 750 mmHg 55%
    13:00 +25°C° 0 mm 4 mps 750 mmHg 54%
    14:00 +25°C° 0 mm 4 mps 750 mmHg 54%
    15:00 +26°C° 0 mm 4 mps 749 mmHg 54%
    16:00 +25°C° 0 mm 3 mps 749 mmHg 60%
    17:00 +25°C° 0 mm 3 mps 749 mmHg 65%
    18:00 +24°C° 0 mm 2 mps 748 mmHg 71%
    19:00 +21°C° 0 mm 2 mps 749 mmHg 72%
    20:00 +20°C° 0 mm 2 mps 749 mmHg 73%
    21:00 +19°C° 0 mm 2 mps 749 mmHg 74%
    22:00 +18°C° 0 mm 2 mps 749 mmHg 76%
    23:00 +18°C° 0 mm 2 mps 749 mmHg 77%

    Day after tomorrow, 25 August, Sunday

    Time Temperature Precipitation Wind Pressure Humidity
    00:00 +17°C° 0 mm 2 mps 749 mmHg 78%
    01:00 +17°C° 0 mm 2 mps 749 mmHg 78%
    02:00 +17°C° 0 mm 2 mps 749 mmHg 79%
    03:00 +17°C° 0 mm 2 mps 749 mmHg 80%
    04:00 +16°C° 0 mm 2 mps 749 mmHg 81%
    05:00 +16°C° 0 mm 2 mps 748 mmHg 82%
    06:00 +16°C° 0 mm 2 mps 748 mmHg 83%
    07:00 +18°C° 0 mm 2 mps 749 mmHg 80%
    08:00 +20°C° 0 mm 2 mps 749 mmHg 76%
    09:00 +21°C° 0 mm 2 mps 749 mmHg 72%
    10:00 +22°C° 0 mm 3 mps 749 mmHg 68%
    11:00 +25°C° 0 mm 3 mps 749 mmHg 65%
    12:00 +26°C° 0 mm 3 mps 749 mmHg 61%
    13:00 +27°C° 0 mm 3 mps 749 mmHg 59%
    14:00 +27°C° 0 mm 3 mps 749 mmHg 58%
    15:00 +28°C° 0 mm 3 mps 749 mmHg 56%
    16:00 +27°C° 0 mm 3 mps 749 mmHg 61%
    17:00 +26°C° 0 mm 2 mps 749 mmHg 65%
    18:00 +26°C° 0 mm 2 mps 749 mmHg 70%
    19:00 +24°C° 0 mm 2 mps 749 mmHg 73%
    20:00 +21°C° 0 mm 2 mps 749 mmHg 76%
    21:00 +19°C° 0 mm 2 mps 750 mmHg 79%
    22:00 +19°C° 0 mm 2 mps 750 mmHg 81%
    23:00 +19°C° 0 mm 1 mps 750 mmHg 83%

    26 August, Monday

    Time Temperature Precipitation Wind Pressure Humidity
    00:00 +18°C° 0 mm 1 mps 750 mmHg 85%
    01:00 +18°C° 0 mm 1 mps 749 mmHg 86%
    02:00 +18°C° 0 mm 1 mps 749 mmHg 88%
    03:00 +16°C° 0 mm 1 mps 749 mmHg 89%
    04:00 +16°C° 0 mm 1 mps 749 mmHg 91%
    05:00 +16°C° 0 mm 1 mps 749 mmHg 92%
    06:00 +15°C° 0 mm 0 mps 749 mmHg 93%
    07:00 +18°C° 0 mm 1 mps 749 mmHg 89%
    08:00 +20°C° 0 mm 1 mps 749 mmHg 84%
    09:00 +21°C° 0 mm 1 mps 750 mmHg 79%
    10:00 +23°C° 0 mm 1 mps 749 mmHg 74%
    11:00 +24°C° 0 mm 1 mps 749 mmHg 68%
    12:00 +26°C° 0 mm 1 mps 749 mmHg 63%
    13:00 +26°C° 0 mm 1 mps 749 mmHg 60%
    14:00 +26°C° 0 mm 1 mps 749 mmHg 58%
    15:00 +27°C° 0 mm 1 mps 749 mmHg 56%
    16:00 +26°C° 0 mm 1 mps 748 mmHg 60%
    17:00 +26°C° 0 mm 1 mps 748 mmHg 65%
    18:00 +25°C° 0 mm 1 mps 748 mmHg 69%
    19:00 +23°C° 0 mm 1 mps 748 mmHg 73%
    20:00 +22°C° 0 mm 1 mps 748 mmHg 78%
    21:00 +20°C° 0 mm 1 mps 749 mmHg 82%
    22:00 +19°C° 0 mm 1 mps 748 mmHg 84%
    23:00 +19°C° 0 mm 1 mps 748 mmHg 85%

    27 August, Tuesday

    Time Temperature Precipitation Wind Pressure Humidity
    00:00 +18°C° 0 mm 1 mps 748 mmHg 87%
    01:00 +18°C° 0 mm 1 mps 748 mmHg 88%
    02:00 +18°C° 0 mm 1 mps 748 mmHg 89%
    03:00 +16°C° 0 mm 1 mps 747 mmHg 90%
    04:00 +16°C° 0 mm 1 mps 747 mmHg 90%
    05:00 +16°C° 0 mm 1 mps 747 mmHg 90%
    06:00 +16°C° 0 mm 1 mps 747 mmHg 91%
    07:00 +19°C° 0 mm 1 mps 747 mmHg 85%
    08:00 +21°C° 0 mm 1 mps 747 mmHg 79%
    09:00 +22°C° 0 mm 1 mps 747 mmHg 74%
    10:00 +23°C° 0 mm 1 mps 746 mmHg 70%
    11:00 +24°C° 0 mm 1 mps 746 mmHg 67%
    12:00 +26°C° 0 mm 2 mps 746 mmHg 64%
    13:00 +25°C° 0.2 mm 2 mps 746 mmHg 66%
    14:00 +25°C° 0.2 mm 3 mps 745 mmHg 68%
    15:00 +25°C° 0.2 mm 3 mps 745 mmHg 70%
    16:00 +23°C° 0.3 mm 4 mps 745 mmHg 72%
    17:00 +21°C° 0.3 mm 4 mps 745 mmHg 75%
    18:00 +20°C° 0.3 mm 4 mps 745 mmHg 78%
    19:00 +19°C° 0.1 mm 4 mps 745 mmHg 78%
    20:00 +18°C° 0.1 mm 4 mps 745 mmHg 78%
    21:00 +17°C° 0.1 mm 4 mps 746 mmHg 79%
    22:00 +15°C° 0 mm 4 mps 746 mmHg 80%
    23:00 +16°C° 0 mm 3 mps 746 mmHg 81%

    28 August, Wednesday

    Time Temperature Precipitation Wind Pressure Humidity
    00:00 +14°C° 0 mm 3 mps 746 mmHg 83%
    01:00 +14°C° 0 mm 3 mps 746 mmHg 84%
    02:00 +14°C° 0 mm 3 mps 745 mmHg 85%
    03:00 +14°C° 0 mm 3 mps 745 mmHg 86%
    04:00 +14°C° 0 mm 4 mps 745 mmHg 86%
    05:00 +14°C° 0 mm 4 mps 746 mmHg 86%
    06:00 +14°C° 0 mm 4 mps 746 mmHg 87%
    07:00 +15°C° 0.1 mm 4 mps 746 mmHg 86%
    08:00 +17°C° 0.1 mm 4 mps 746 mmHg 86%
    09:00 +17°C° 0.1 mm 4 mps 746 mmHg 85%
    10:00 +18°C° 0.4 mm 4 mps 746 mmHg 83%
    11:00 +18°C° 0.4 mm 4 mps 746 mmHg 81%
    12:00 +18°C° 0.4 mm 4 mps 746 mmHg 79%
    13:00 +17°C° 0.1 mm 5 mps 747 mmHg 77%
    14:00 +16°C° 0.1 mm 5 mps 747 mmHg 75%
    15:00 +16°C° 0.1 mm 5 mps 747 mmHg 73%
    16:00 +15°C° 0 mm 4 mps 747 mmHg 73%
    17:00 +15°C° 0 mm 4 mps 748 mmHg 73%
    18:00 +14°C° 0 mm 3 mps 748 mmHg 72%
    19:00 +13°C° 0 mm 3 mps 749 mmHg 75%
    20:00 +11°C° 0 mm 3 mps 749 mmHg 77%
    21:00 +10°C° 0 mm 2 mps 749 mmHg 79%
    22:00 +10°C° 0 mm 2 mps 750 mmHg 83%
    23:00 +10°C° 0 mm 2 mps 750 mmHg 87%
    Show more